sat.trackr.live / text

‹ back to catalog

STARLINK-34637

NORAD 64776 · 2025-147X

PAYLOAD ACTIVE UNKNOWN

§ Identity

Operator
Country
US
Launch date
2025-07-08
Launch site
AFETR
Launch vehicle
Mass (kg)
RCS (m²)

Purposes: comms

External: N2YO · Heavens-Above · Gunter

§ Orbital elements

Epoch: 2026-05-25T00:19:38.464032Z

Period
93.85 min
Inclination
53.1588°
Eccentricity
0.0001366
Mean motion
15.34404305 rev/d
Perigee alt
461.8 km
Apogee alt
463.6 km
Semi-major
6,840.8 km
B*
7.5290e-4
RAAN
247.7833°
Arg perigee
64.1834°
Mean anomaly
295.9310°
Rev number
5,037

§ Raw data

STARLINK-346371 64776U 25147X   26145.01363963  .00025150  00000+0  75290-3 0  99962 64776  53.1588 247.7833 0001366  64.1834 295.9310 15.34404305 50371

JSON: /api/v1/satellites/64776 · /tle

For live sub-satellite position, see the globe view (requires WebGL).

§ Visibility from observer

Set your observer location to see the next 7 days of passes ≥ 10°. The values pass through the URL so the page stays shareable.

No JS? Fill the form by hand. The geolocation button needs JavaScript.